Sitka, AK

2:36 PM AKST on February 25, 2017 (GMT -0900)
Sitka Rocky Gutierrez

Weather History for PASI - October, 2011

Change the Weather History Date:

Sunday, October 16, 2011

  Actual Average Record
Temperature  
Mean Temperature 46 °F -  
Max Temperature 48 °F 50 °F 64 °F (2015)
Min Temperature 43 °F 40 °F 31 °F (1992)
Degree Days  
Heating Degree Days 20    
Moisture  
Dew Point 42 °F    
Average Humidity 86    
Maximum Humidity 96    
Minimum Humidity 74    
Precipitation  
Precipitation 0.10 in - - ()
Sea Level Pressure  
Sea Level Pressure 29.87 in    
Wind  
Wind Speed 3 mph (East)    
Max Wind Speed 7 mph    
Max Gust Speed -    
Visibility 10 miles    
Events Rain    
Averages and records for this station are not official NWS values.
T = Trace of Precipitation, MM = Missing Value Source: NWS Daily Summary

Daily Weather History Graph

Daily Weather History Graph

Search for Another Location

Airport or City:

Trip Planner

Search our weather history database for the weather conditions in past years. The results will help you decide how hot, cold, wet, or windy it might be!

Date:

Astronomy

Oct. 16, 2011 Rise Set
Actual Time 7:36 AM AKDT 5:56 PM AKDT
Civil Twilight 6:57 AM AKDT 6:35 PM AKDT
Nautical Twilight 6:13 AM AKDT 7:19 PM AKDT
Astronomical Twilight 5:29 AM AKDT 8:03 PM AKDT
Moon 7:52 PM AKDT (10/16) 12:56 PM AKDT (10/16)
Length of Visible Light 11h 37m
Length of Day
10h 19m
Waning Gibbous, 81% of the Moon is Illuminated
Oct 16
Waning Gibbous
Oct 19
Last Quarter
Oct 26
New
Nov 2
First Quarter
Nov 10
Full

Hourly Weather History & Observations

Time (AKDT) Temp. Windchill Dew Point Humidity Pressure Visibility Wind Dir Wind Speed Gust Speed Precip Events Conditions
12:53 AM 44.1 °F - 43.0 °F 96% 29.85 in 10.0 mi Calm Calm - 0.01 in Rain Light Rain
1:11 AM 44.6 °F - 42.8 °F 93% 29.85 in 10.0 mi Calm Calm - 0.00 in Rain Light Rain
1:53 AM 45.0 °F - 42.1 °F 90% 29.85 in 10.0 mi Calm Calm - 0.01 in Rain Light Rain
2:40 AM 46.4 °F 44.3 °F 42.8 °F 87% 29.87 in 8.0 mi ESE 4.6 mph - 0.04 in Rain Light Rain
2:53 AM 45.0 °F 43.5 °F 42.1 °F 90% 29.87 in 8.0 mi East 3.5 mph - 0.05 in Rain Light Rain
3:53 AM 44.1 °F 40.1 °F 42.1 °F 93% 29.87 in 10.0 mi ENE 6.9 mph - 0.01 in   Overcast
4:44 AM 44.6 °F 41.4 °F 42.8 °F 93% 29.88 in 5.0 mi South 5.8 mph - 0.01 in Rain Rain
4:53 AM 45.0 °F 43.5 °F 42.1 °F 90% 29.88 in 7.0 mi SE 3.5 mph - 0.02 in Rain Light Rain
5:13 AM 44.6 °F 42.2 °F 42.8 °F 93% 29.87 in 10.0 mi East 4.6 mph - 0.00 in Rain Light Rain
5:53 AM 44.1 °F 40.8 °F 42.1 °F 93% 29.87 in 10.0 mi East 5.8 mph - 0.00 in   Overcast
6:53 AM 44.1 °F 40.1 °F 41.0 °F 89% 29.88 in 10.0 mi ESE 6.9 mph - 0.00 in   Overcast
7:53 AM 44.1 °F 40.1 °F 41.0 °F 89% 29.88 in 10.0 mi ESE 6.9 mph - N/A   Overcast
8:53 AM 44.1 °F 41.5 °F 41.0 °F 89% 29.88 in 10.0 mi East 4.6 mph - N/A   Mostly Cloudy
9:53 AM 45.0 °F 42.6 °F 41.0 °F 86% 29.88 in 10.0 mi East 4.6 mph - N/A   Scattered Clouds
10:53 AM 46.9 °F - 42.1 °F 83% 29.89 in 10.0 mi Calm Calm - N/A   Scattered Clouds
11:53 AM 46.9 °F - 42.1 °F 83% 29.90 in 10.0 mi WNW 5.8 mph - N/A   Scattered Clouds
12:53 PM 48.9 °F - 41.0 °F 74% 29.91 in 10.0 mi Calm Calm - N/A   Mostly Cloudy
1:53 PM 48.9 °F - 42.1 °F 77% 29.90 in 10.0 mi Calm Calm - N/A   Mostly Cloudy
2:53 PM 48.0 °F - 43.0 °F 83% 29.89 in 10.0 mi NE 3.5 mph - 0.00 in Rain Light Rain
3:53 PM 48.0 °F - 42.1 °F 80% 29.88 in 10.0 mi East 4.6 mph - 0.00 in   Mostly Cloudy
4:53 PM 48.0 °F - 41.0 °F 77% 29.88 in 10.0 mi East 4.6 mph - N/A   Overcast
5:53 PM 46.9 °F - 41.0 °F 80% 29.87 in 10.0 mi East 5.8 mph - N/A   Overcast
6:53 PM 46.9 °F - 41.0 °F 80% 29.86 in 10.0 mi ESE 6.9 mph - N/A   Overcast
7:53 PM 45.0 °F 42.6 °F 41.0 °F 86% 29.86 in 10.0 mi East 4.6 mph - N/A   Overcast
8:53 PM 44.1 °F 40.8 °F 39.9 °F 85% 29.86 in 10.0 mi East 5.8 mph - N/A   Mostly Cloudy
9:53 PM 44.1 °F 42.5 °F 39.9 °F 85% 29.86 in 10.0 mi NE 3.5 mph - N/A   Overcast
10:53 PM 43.0 °F - 39.9 °F 89% 29.86 in 10.0 mi Calm Calm - N/A   Mostly Cloudy
11:53 PM 44.1 °F - 39.0 °F 82% 29.85 in 10.0 mi Calm Calm - N/A   Overcast